Weather in Lityn

Ukraine / Vinnytsia Region     49˚19′38″N   28˚05′00″E
temp.,
°C
wind,
m/s
gust,
m/s
humid.,
%
clouds,
%
prec.,
mm/h
press.,
hPa
HPBL,
m
29 november, sun
sun2923:00−1˚sw349549 0.0 1019105
02:00−2˚sw249524 0.0 1019120
05:00−1˚wsw369653 0.0 1019216
08:00−2˚w249656 0.0 1019113
11:00w347167 0.0 1020513
14:00+1˚w346475 0.0 1020802
17:00−1˚wsw117781 0.0 102121
20:00−2˚sw128281 0.0 102221
30 november, mon
mon3023:00−2˚wsw22880 0.0 102322
02:00−3˚wsw12920 0.0 102421
05:00−3˚wnw22930 0.0 102421
08:00−3˚nw12940 0.0 102521
11:00nw23730 0.0 1026358
14:00+1˚nnw34660 0.0 1026667
17:00−2˚nnw33840 0.0 102650
20:00−3˚n35920 0.0 102795
1 december, tue
tue123:00−3˚n239048 0.0 102886
02:00−4˚nne358961 0.0 1028144
05:00−3˚nne368181 0.0 1028413
08:00−4˚nne378665 0.0 1029186
11:00−1˚ne47700 0.0 1028516
14:00ne46670 0.0 1027532
17:00−3˚nne388223 0.0 1027239
20:00−3˚ne489461 0.1 1027316
2 december, wed
wed223:00−2˚ne369693 0.3 1026220
02:00−1˚ne369795 0.5 1026242
05:00ene3698100 0.2 1025242
08:00ene2499100 0.5 1025211
11:00e3497100 0.4 1025248
14:00e3497100 0.6 1024280
17:00ese2499100 0.1 1024223
20:00se2599100 0.3 1024252
3 december, thu
thu323:00e3598100 0.1 1024180
02:00se359793 0.1 1024320
05:00e2399100 0.2 1023125
08:00+1˚ese259997 0.6 1023185
11:00+1˚se2498100 0.1 1023234
14:00+2˚e3598100 0.1 1022254
17:00+2˚ese369991 0.0 1022194
20:00+2˚se479895 0.1 1022268